Regional Weather Roundup
Issued by NWS

Home | Current Version | Previous Version | Text Only | Print | Product List | Glossary Off
Versions: 1 2 3 4 5 6 7 8 9 10 11 12 13 14 15 16 17 18 19 20 21 22 23 24 25 26 27 28 29 30 31 32 33 34 35 36 37 38 39 40 41 42 43 44 45 46 47 48 49 50

000
ASUS43 KIND 231609
RWRIN

WEATHER ROUNDUP FOR INDIANA
NATIONAL WEATHER SERVICE INDIANAPOLIS IN
1200 PM EDT SAT AUG 23 2014

NOTE: "FAIR" INDICATES FEW OR NO CLOUDS BELOW 12,000 FEET WITH NO
SIGNIFICANT WEATHER AND/OR OBSTRUCTIONS TO VISIBILITY.

* - STATION DOES NOT REPORT WEATHER SUCH AS PRECIPITATION OR FOG.

+ - STATION NOT QUALITY CONTROLLED BY THE NATIONAL WEATHER SERVICE.
    USE DATA WITH CAUTION...ESPECIALLY DEWPOINT AND RELATIVE
    HUMIDITY OBSERVATIONS.

INZ001>003-010>013-019-020-231700-
NORTHWEST INDIANA

CITY           SKY/WX    TMP DP  RH WIND       PRES   REMARKS
GARY /AIRPORT/ PTSUNNY   84  73  70 CALM      30.00R
KNOX *+        SUNNY     83  72  70 SE3       30.00S
LA PORTE +     MOSUNNY   81  76  82 CALM      30.02S
MICHIGAN CITY+ PTSUNNY   82  70  65 CALM      30.01S
MONTICELLO +   PTSUNNY   82  75  79 S3        30.00S
RENSSELAER +   MOSUNNY   82  77  83 SE3       30.01R
VALPARAISO     MOSUNNY   83  73  72 VRB5      30.02R

$$

LMZ046-743>745-231700-
SOUTHERN LAKE MICHIGAN

STATION/POSITION TIME  TEMP WIND        PRES
                       AIR  DIR/SP/G
                 (UTC) (F)  (DEG/KT/KT) (MB)
MICHIGAN CITY    1600   74   20/  6/  7   N/A

$$

INZ004-005-014>016-021>024-231700-
NORTH CENTRAL INDIANA

CITY           SKY/WX    TMP DP  RH WIND       PRES   REMARKS
ELKHART        CLOUDY    77  73  88 SE9       30.04S FOG
GOSHEN         CLOUDY    80  72  76 SE6       30.03S
LOGANSPORT +   MOSUNNY   81  70  69 E3        30.02S
PERU/GRISSOM   MOSUNNY   83  78  85 E3        30.01S
ROCHESTER +    MOSUNNY   82  73  74 CALM      30.02S
SOUTH BEND     CLOUDY    77  73  87 E9        30.03R FOG
WARSAW +       CLOUDY    77  73  88 E6        30.04S FOG

$$

INZ006>009-017-018-025>027-231700-
NORTHEAST INDIANA

CITY           SKY/WX    TMP DP  RH WIND       PRES   REMARKS
ANGOLA *+      SUNNY     81  70  69 VRB5      30.04F
AUBURN +       SUNNY     81  68  65 E6        30.05S
FORT WAYNE     CLOUDY    78  73  84 E8        30.04S
HUNTINGTON +   CLOUDY    77  74  91 SE5       30.03S

$$

INZ028-029-035-036-043>045-051>053-231700-
WEST CENTRAL INDIANA

CITY           SKY/WX    TMP DP  RH WIND       PRES   REMARKS
GREENCASTLE +  MOSUNNY   81  75  83 SE3       30.01F
LAFAYETTE      MOSUNNY   83  74  74 VRB5      29.99S
TERRE HAUTE    MOSUNNY   83  75  77 E3        29.99S

$$

INZ030>032-037>040-046>048-054>057-064-065-231700-
CENTRAL INDIANA

CITY           SKY/WX    TMP DP  RH WIND       PRES   REMARKS
CP ATTERBURY + PTSUNNY   82  73  74 E6        30.02S
COLUMBUS       MOSUNNY   84  75  74 CALM      30.02S
FRANKFORT +    MOSUNNY   84  74  72 SE3       30.03R
INDIANAPOLIS   CLOUDY    83  73  72 SE8       30.00F
-EAGLE CREEK   MOSUNNY   84  72  67 VRB7      30.00F
KOKOMO *+      MOSUNNY   82  73  74 CALM      30.01S
MARION +       MOSUNNY   82  73  75 CALM      30.03S
MT COMFORT *+  MOSUNNY   84  73  70 SE5       30.02S
SHELBYVILLE    PTSUNNY   85  73  67 E3        30.01F
ZIONSVILLE +   MOSUNNY   84  70  63 SE3       30.03S

$$

INZ033-034-041-042-049-050-058-059-231700-
EAST CENTRAL INDIANA

CITY           SKY/WX    TMP DP  RH WIND       PRES   REMARKS
MUNCIE         SUNNY     84  72  67 CALM      30.02S

$$

INZ060-061-067>069-081>083-085>088-231700-
SOUTHWEST INDIANA

CITY           SKY/WX    TMP DP  RH WIND       PRES   REMARKS
EVANSVILLE     SUNNY     87  75  67 S7        29.98S HX  96
WASHINGTON +   MOSUNNY   84  78  82 CALM      29.98S

$$

INZ062-063-066-070>080-084-089>092-231700-
SOUTH CENTRAL AND SOUTHEAST INDIANA

CITY           SKY/WX    TMP DP  RH WIND       PRES   REMARKS
BLOOMINGTON    SUNNY     84  72  67 S5        30.01S

$$




USA.gov is the U.S. government's official web portal to all federal, state and local government web resources and services.